Temp
9 9 9 10 10 10 10 11 11 10 10 9 10 10 10 10 10 10 10 9 9 9 9 9 9 8 8 8 8 8 8 8 8 8 8 8 8 8
9 9 9 10 10 10 10 11 11 11 11 10 10 11 10 10 10 10 9 9 9 9 9 9 9 9 8 8 8 8 8 8 8 8 8 8 8 8
10 10 10 10 10 10 10 10 11 11 11 10 10 11 10 10 10 10 9 9 9 9 9 9 9 8 8 8 8 8 8 8 8 8 8 8 8 8
10 10 10 10 10 10 10 10 11 11 11 10 11 11 11 10 10 10 10 9 9 9 9 9 8 8 8 8 8 8 8 8 8 8 8 8 8 8
10 10 10 10 10 10 10 10 10 11 11 11 11 11 11 10 10 10 9 9 9 9 9 8 8 8 8 8 8 8 8 8 8 8 8 8 8 8
10 10 10 10 10 10 10 10 10 10 11 11 11 11 11 11 10 10 10 9 9 9 9 8 8 8 8 8 8 8 8 8 8 8 8 7 7 7
11 11 10 10 11 11 11 10 10 10 10 10 10 10 10 11 10 10 10 9 9 9 9 8 8 8 8 8 7 7 7 8 8 8 8 7 7 7
11 11 11 11 11 11 10 11 11 10 10 10 10 10 11 11 10 10 10 9 9 9 9 9 9 8 8 8 8 7 7 7 8 8 8 7 7 7
11 11 11 11 11 11 11 11 10 10 10 11 11 11 11 11 11 10 10 10 8 8 9 9 9 8 8 8 8 7 7 8 8 7 7 7 7 7
10 11 11 11 12 11 11 10 10 10 10 10 10 10 11 11 11 10 10 10 8 8 8 8 8 8 8 8 8 7 7 8 7 7 7 6 6 6
9 10 10 10 11 12 11 11 10 10 10 10 10 10 11 11 10 10 9 9 8 7 8 8 8 8 8 7 7 7 7 7 6 6 6 6 6 6
9 9 10 9 10 11 11 11 11 11 10 11 10 10 10 10 9 9 9 9 8 7 7 7 8 8 7 7 7 7 7 6 5 5 5 5 5 5
8 9 9 9 9 10 11 11 11 11 11 11 10 10 10 10 9 9 9 9 8 8 8 7 8 7 7 7 7 7 6 6 5 5 5 5 4 5
8 8 8 8 9 9 10 10 10 10 10 10 10 10 10 9 9 9 9 9 9 8 8 7 7 7 7 7 7 7 7 6 5 4 4 4 4 4
7 8 8 8 8 8 9 9 9 9 8 8 10 10 10 10 9 9 8 7 8 7 7 7 7 6 6 6 6 7 7 7 6 5 5 4 4 4
4 5 6 7 7 8 8 8 9 9 9 9 9 9 9 8 9 9 8 7 7 7 7 6 6 6 6 6 5 5 6 5 6 5 5 4 3 3
1 2 2 3 4 6 6 8 8 8 8 8 9 9 8 8 8 8 8 7 6 6 6 6 6 6 5 5 5 5 5 4 4 3 3 3 3 2
-1 0 1 2 2 3 4 5 6 7 7 7 8 8 8 7 7 7 6 6 6 6 6 6 5 5 5 4 4 4 3 3 3 3 3 3 3 2
-2 -1 -1 -0 -0 -0 1 1 2 2 3 5 6 6 6 6 6 5 5 5 5 5 5 5 4 4 4 4 3 2 2 2 2 2 2 2 2 2
-4 -4 -3 -3 -3 -2 -2 -1 -0 0 2 2 2 3 3 4 4 4 4 4 4 4 4 3 3 2 2 2 1 1 1 1 0 0 1 1 1 1
-7 -6 -6 -6 -5 -4 -4 -4 -3 -2 -1 -1 0 0 1 1 1 1 0 0 0 0 0 0 0 0 0 -0 -1 -1 -1 -2 -2 -1 -1 -1 -0 1
-9 -8 -8 -8 -7 -7 -6 -6 -5 -5 -4 -4 -3 -3 -3 -2 -2 -2 -2 -2 -2 -2 -2 -2 -2 -3 -3 -3 -3 -3 -3 -2 -2 -2 -3 -3 -4 -4
-11 -10 -10 -9 -9 -9 -8 -8 -7 -7 -7 -6 -6 -5 -5 -4 -4 -4 -4 -4 -4 -4 -4 -4 -5 -5 -5 -5 -5 -5 -5 -5 -4 -3 -3 -4 -4 -4
Height
1542 1545 1549 1554 1557 1561 1563 1566 1569 1571 1574 1575 1577 1579 1581 1583 1585 1587 1588 1589 1589 1590 1590 1590 1591 1592 1592 1592 1592 1592 1592 1591 1591 1590 1589 1588 1588 1587
1537 1540 1544 1549 1554 1556 1560 1562 1565 1568 1571 1572 1574 1576 1579 1582 1584 1585 1587 1588 1588 1589 1589 1589 1589 1590 1590 1590 1591 1591 1591 1590 1589 1589 1588 1587 1587 1586
1531 1535 1539 1544 1549 1552 1556 1559 1561 1564 1568 1569 1571 1574 1576 1579 1581 1583 1584 1586 1587 1587 1588 1588 1588 1588 1588 1588 1588 1588 1588 1588 1587 1587 1586 1585 1585 1584
1525 1530 1534 1539 1544 1548 1552 1554 1557 1560 1564 1566 1568 1571 1573 1576 1579 1580 1582 1583 1584 1585 1586 1586 1586 1586 1586 1586 1586 1585 1585 1585 1585 1584 1584 1583 1582 1582
1518 1524 1528 1533 1537 1542 1546 1550 1553 1556 1560 1563 1565 1567 1569 1573 1575 1577 1579 1580 1581 1582 1583 1583 1584 1584 1584 1583 1583 1582 1582 1582 1582 1582 1581 1580 1579 1578
1511 1516 1521 1526 1530 1536 1540 1545 1549 1552 1555 1558 1561 1563 1566 1569 1571 1573 1575 1576 1577 1578 1579 1580 1580 1581 1580 1580 1580 1579 1579 1579 1579 1578 1577 1576 1575 1574
1503 1508 1513 1518 1523 1529 1534 1538 1543 1547 1550 1553 1555 1558 1560 1563 1565 1568 1570 1572 1573 1574 1575 1575 1575 1576 1576 1576 1576 1575 1575 1575 1574 1573 1573 1572 1570 1568
1494 1500 1505 1510 1515 1521 1526 1532 1536 1540 1543 1546 1549 1551 1554 1557 1560 1563 1565 1566 1568 1568 1569 1570 1571 1570 1571 1572 1571 1570 1570 1570 1569 1568 1567 1566 1565 1564
1486 1491 1496 1501 1506 1512 1517 1523 1528 1533 1536 1540 1542 1544 1548 1551 1555 1556 1558 1559 1561 1563 1564 1565 1565 1566 1566 1567 1567 1566 1565 1564 1563 1563 1562 1561 1560 1559
1476 1482 1486 1492 1495 1502 1508 1513 1517 1522 1527 1531 1534 1538 1542 1545 1548 1550 1552 1555 1556 1555 1558 1558 1559 1560 1561 1562 1562 1561 1561 1560 1558 1557 1557 1557 1556 1555
1466 1471 1476 1481 1486 1493 1497 1502 1507 1510 1517 1522 1526 1530 1534 1538 1540 1542 1543 1546 1546 1548 1551 1552 1552 1554 1555 1557 1557 1557 1556 1556 1555 1554 1552 1552 1551 1549
1456 1460 1466 1471 1476 1480 1486 1491 1494 1499 1507 1512 1516 1520 1523 1527 1530 1532 1536 1538 1540 1541 1542 1546 1546 1548 1548 1549 1550 1551 1551 1550 1550 1550 1549 1548 1546 1544
1445 1451 1455 1460 1465 1469 1474 1479 1482 1493 1496 1500 1505 1509 1512 1516 1519 1522 1524 1528 1530 1532 1535 1538 1539 1541 1542 1542 1542 1544 1546 1547 1546 1545 1544 1543 1541 1538
1436 1441 1445 1447 1453 1458 1463 1468 1475 1482 1486 1487 1491 1495 1498 1503 1508 1511 1513 1516 1519 1525 1529 1530 1531 1532 1535 1535 1536 1537 1539 1540 1539 1539 1538 1536 1535 1533
1430 1432 1435 1438 1443 1446 1451 1457 1463 1468 1473 1474 1474 1480 1485 1491 1496 1501 1504 1508 1509 1514 1518 1521 1524 1524 1527 1527 1528 1529 1530 1532 1533 1533 1533 1531 1529 1526
1423 1425 1426 1428 1431 1435 1438 1443 1449 1453 1455 1459 1463 1468 1474 1477 1481 1485 1490 1491 1500 1502 1508 1511 1515 1515 1517 1519 1521 1522 1521 1522 1524 1523 1522 1523 1523 1520
1424 1422 1422 1422 1423 1423 1427 1430 1435 1440 1444 1445 1449 1455 1462 1464 1470 1472 1477 1482 1488 1493 1497 1502 1504 1505 1508 1510 1512 1514 1514 1514 1515 1514 1512 1511 1513 1513
1424 1422 1421 1421 1419 1420 1423 1423 1426 1429 1434 1435 1440 1444 1449 1455 1460 1463 1468 1475 1479 1484 1489 1492 1495 1496 1499 1499 1502 1503 1505 1505 1506 1506 1504 1500 1501 1504
1423 1422 1422 1421 1422 1423 1424 1424 1424 1426 1427 1427 1430 1436 1440 1447 1451 1455 1462 1467 1469 1474 1478 1481 1482 1486 1487 1489 1493 1494 1495 1495 1496 1498 1496 1493 1490 1490
1421 1422 1424 1423 1423 1425 1426 1425 1427 1429 1429 1432 1430 1432 1437 1440 1443 1448 1455 1459 1463 1467 1470 1473 1475 1477 1480 1482 1484 1486 1486 1487 1488 1487 1485 1483 1481 1479
1424 1424 1425 1425 1426 1426 1427 1427 1428 1429 1429 1430 1434 1436 1436 1439 1442 1448 1452 1455 1458 1461 1464 1467 1468 1471 1472 1474 1477 1480 1481 1481 1481 1478 1475 1473 1471 1467
1426 1426 1426 1426 1426 1428 1428 1428 1430 1431 1431 1433 1434 1436 1438 1440 1441 1445 1450 1453 1456 1459 1461 1464 1465 1467 1468 1470 1472 1472 1472 1474 1473 1471 1470 1468 1465 1459
1427 1427 1428 1427 1427 1428 1428 1429 1430 1431 1432 1432 1434 1437 1438 1441 1443 1445 1447 1450 1454 1457 1459 1459 1461 1462 1463 1464 1466 1465 1464 1464 1463 1463 1463 1463 1460 1457
Wind_Speed
28 27 28 27 14 24 16 15 15 13 17 17 14 18 17 15 13 10 8 6 5 5 6 7 6 5 5 5 5 4 4 4 5 5 6 6 6 6
29 28 30 34 25 18 21 16 20 14 10 14 19 18 18 17 14 12 10 8 7 5 5 6 8 8 8 8 8 8 8 8 8 8 8 8 9 9
31 30 30 34 35 20 24 19 19 22 14 15 15 18 19 18 16 14 12 10 9 8 6 5 6 7 8 9 9 10 10 9 9 10 10 9 10 11
35 32 30 33 38 31 28 22 20 22 21 14 20 22 21 20 19 18 16 14 13 11 10 8 6 6 7 8 9 10 11 11 11 11 11 11 12 14
37 36 34 34 37 37 33 28 25 23 25 20 19 22 23 22 22 21 20 18 17 16 14 13 11 10 10 11 12 12 13 14 14 13 13 15 16 16
40 39 38 38 39 39 37 33 29 27 28 27 24 22 23 24 23 23 23 22 20 20 18 18 16 16 14 12 11 13 13 14 14 15 16 17 17 18
44 43 41 40 39 39 41 38 35 31 30 32 30 27 26 26 28 26 26 23 23 23 22 21 20 19 19 17 15 14 14 15 16 17 18 19 21 20
47 46 45 42 41 39 41 41 41 37 36 35 35 33 31 29 28 29 27 28 25 26 25 23 22 22 20 20 18 16 16 17 18 19 19 19 19 17
49 48 46 46 44 43 42 42 43 42 41 39 40 40 35 33 30 29 31 31 29 25 21 23 23 23 22 20 18 16 17 18 19 17 17 17 16 15
50 49 49 47 47 46 46 44 45 45 44 43 43 41 38 35 31 28 28 29 28 31 27 27 25 22 21 21 20 18 18 17 16 15 14 15 17 17
51 52 52 50 48 46 47 49 47 48 47 45 43 41 39 34 32 30 31 31 30 30 29 28 28 23 23 22 22 20 19 20 17 15 15 16 18 18
48 50 48 49 48 46 47 49 52 51 51 49 47 46 43 39 38 35 34 35 34 32 34 30 30 24 24 24 22 22 22 19 18 17 19 19 20 21
42 49 42 48 48 49 48 48 50 48 51 51 50 49 47 46 45 42 41 38 37 37 34 27 30 29 27 18 17 18 19 19 21 22 21 21 23 24
34 33 43 45 42 47 49 47 46 43 47 51 51 55 54 52 50 49 46 39 37 37 36 34 32 31 29 28 27 23 22 21 20 21 22 23 24 24
33 40 45 41 43 44 45 47 48 47 47 49 50 53 55 56 52 53 49 42 36 36 36 36 35 32 32 31 30 28 27 26 25 23 23 25 28 30
20 25 32 39 47 55 52 49 49 51 52 53 53 53 54 55 54 55 53 45 40 38 36 35 37 33 33 31 31 30 28 26 26 25 29 30 30 31
5 9 12 16 20 25 34 45 52 52 48 52 48 52 52 49 56 57 56 43 39 36 36 33 39 34 34 33 34 33 28 26 25 26 28 30 32 31
2 6 7 7 8 13 19 27 35 41 44 50 47 47 50 46 42 36 33 32 29 32 35 37 40 34 35 31 31 30 28 27 26 27 28 32 35 34
4 4 7 9 11 12 14 13 14 17 22 34 40 39 36 34 34 31 31 30 29 39 37 40 40 36 34 32 29 23 24 25 27 28 30 33 38 40
6 6 6 6 8 8 9 11 12 12 12 9 15 22 25 26 27 26 26 27 32 37 35 33 30 27 25 24 24 23 24 24 26 30 33 36 39 41
2 4 5 5 5 5 5 5 6 7 10 12 14 12 14 16 17 19 21 22 21 21 21 22 22 22 21 21 21 23 23 24 25 29 32 36 38 40
1 1 1 2 3 3 3 4 4 5 6 7 7 9 11 12 13 14 14 14 15 16 17 17 17 17 18 18 20 22 23 24 24 25 24 24 26 30
1 3 3 3 3 2 3 3 4 3 4 4 5 6 7 8 9 10 11 12 13 14 14 15 15 15 15 16 18 19 21 21 23 24 22 21 23 26
Wind_Direction
222 223 220 216 214 212 213 217 207 197 208 213 216 215 210 208 204 202 206 214 223 234 239 236 234 239 243 251 258 271 289 310 321 327 330 331 331 330
222 224 222 218 221 223 218 222 215 214 211 211 212 216 206 204 206 209 215 223 233 238 242 243 240 241 247 252 260 268 277 284 293 299 305 307 308 306
225 227 225 221 222 230 214 220 224 218 220 219 212 214 213 210 214 218 224 232 242 247 253 258 249 246 251 260 262 265 269 274 280 286 291 296 301 302
227 228 227 223 222 227 221 225 224 218 221 225 219 215 217 219 222 227 231 237 245 249 254 257 259 256 261 269 269 266 264 269 276 280 282 289 296 300
229 230 228 226 224 225 227 229 223 224 220 223 224 220 221 221 225 228 232 239 246 251 254 255 257 264 274 283 269 268 269 271 276 278 283 291 296 297
230 232 232 230 229 227 227 228 224 226 223 222 230 232 229 227 228 232 236 240 247 249 253 255 257 262 269 280 282 273 272 274 277 282 289 292 295 299
233 233 233 233 232 230 229 228 225 226 226 225 230 229 228 230 232 238 240 245 247 249 251 254 258 258 260 267 278 279 271 275 281 286 289 289 292 296
234 234 233 234 234 233 234 233 232 229 231 231 231 233 236 239 240 241 246 242 245 249 249 254 256 259 259 265 272 274 270 275 282 285 286 285 288 295
239 238 237 236 234 233 234 234 237 237 238 241 238 240 242 245 250 248 246 249 248 243 248 252 256 256 255 256 263 272 276 280 278 278 283 286 287 290
242 243 243 240 237 234 234 234 234 236 236 239 243 247 249 253 255 259 260 258 254 243 246 248 254 252 251 250 259 271 276 281 276 275 279 284 288 288
239 244 244 246 244 239 238 237 236 237 237 239 241 242 245 246 251 247 240 239 240 243 241 244 248 248 248 248 258 268 271 274 267 262 272 279 285 286
237 238 242 245 245 246 242 242 240 238 238 238 237 238 239 242 243 244 241 238 239 240 241 239 246 243 244 247 255 265 267 257 250 263 284 281 282 288
228 237 245 246 244 245 244 243 245 244 241 241 242 240 242 242 239 238 240 243 241 244 249 242 248 245 238 242 242 270 273 269 272 278 278 277 280 283
240 230 232 240 248 247 246 246 246 247 245 244 244 244 243 242 240 239 241 242 247 241 247 246 248 248 242 242 244 255 262 270 278 289 288 284 285 286
234 237 243 246 246 247 243 251 248 243 240 241 242 245 248 248 245 237 235 232 237 238 239 241 245 243 243 246 249 253 258 263 272 282 283 282 283 284
235 239 241 247 248 242 249 236 243 246 237 241 242 250 253 245 246 244 228 222 230 231 234 235 245 242 247 244 249 254 257 261 271 278 285 281 281 283
205 228 248 246 240 231 231 229 227 235 239 234 256 236 238 242 240 241 228 219 225 231 228 241 241 240 254 242 254 255 252 264 275 280 281 283 284 284
188 165 161 162 193 210 222 228 237 239 234 234 232 243 233 228 219 208 208 218 227 238 243 241 237 239 237 235 239 243 252 259 269 272 276 280 282 288
206 145 129 130 129 136 141 146 162 179 191 198 200 194 199 210 209 213 221 229 230 236 233 234 224 222 225 229 234 242 247 255 262 266 272 276 281 284
130 135 146 147 144 145 140 139 140 145 149 159 163 174 179 187 196 199 207 215 222 228 226 219 222 225 228 235 241 249 251 253 263 275 280 281 284 287
125 135 142 152 159 167 168 162 161 167 169 173 189 190 190 193 193 195 196 196 198 203 210 216 222 230 234 242 253 256 257 268 275 282 286 289 291 291
16 334 206 185 183 199 199 191 186 183 179 182 185 186 190 194 196 202 210 217 219 223 228 235 242 250 257 261 265 272 277 278 281 285 289 291 297 296
329 285 281 283 273 252 240 239 235 229 217 207 209 215 219 223 221 223 228 232 238 240 242 246 252 257 262 267 275 281 286 292 293 289 288 290 288 288